Showing default

FLOCK 4Q 2, 58320

Orbit data source: Space-Track

FLOCK 4Q 2, 58320 is a payload satellite owned by Planet (US) in SSO that was launched on Sat, 11 Nov 2023 UTC via an FALCON 9 launch vehicle from the Air Force Western Test Range (AFWTR). Payload-class satellites include a variety of spacecraft equipped with specific instruments for various scientific and technological missions. These include communications satellites like Starlink; space stations such as the ISS; scientific satellites like the Hubble; Earth observation satellites from companies like Planet Labs, Umbra, and HawkEye 360; GPS; miniature CubeSats for education and research; and military/defense satellites.

Loading next visibility...
Identifier
58320, 2023-174BS
Orbit
SSO
Country
Flag of USUS
Related business
Manufacturer
Planet
Mission
Operational Commercial Imaging
Bus & Motor
CUBESAT 3U, Unknown motor
Mass
5.7 kg wet, 5.7 kg dry
Launch date (UTC)
2023-11-11 (3 years ago)
Launch vehicle
FALCON 9
Launch site
Air Force Western Test Range (AFWTR)
Object type
Payload
Rocket body
Debris
Shape & HBR
Box + 2 Pan, 1.0 m
Radar Cross Section
0.072 m², Medium (>0.1 m² and < 1m²)

Expand to show TLE details & history
Last TLE update: 22 hours ago

TLE from 22 hours ago
0 FLOCK 4Q 2
1 58320U 23174BS  26172.52376442  .00018886  00000-0  34086-3 0  9991
2 58320  97.3827 261.0661 0006868 122.2371 237.9547 15.49766064146279
Epoch: 2026-06-21T12:34Z
TLE epoch observation values (Epoch: 2026-06-21T12:34:13.245Z)
Latitude
-0.00003°
Longitude
162.78811°
Altitude
423.02 km
Speed
7.656 km/s
True Right ascension
17h 24m 15s
True Declination
0° 00' 00"
Sunlit
Object was in full shadow at epoch
Visualization orbit readout
Latitude
Unknown
Longitude
Unknown
Altitude
Unknown
Speed
Unknown
Apparent Right ascension
Unknown
Apparent Declination
Unknown
Sunlit
N/A
Visualization observer readout
Local Sidereal Time
21:36:21
Azimuth
Unknown
Elevation
Unknown
Doppler factor
Unknown
Orbital elements
Apogee altitude
419 km
Perigee altitude
409.67 km
Semi-major axis
6,792.472 km
Eccentricity
0.00069
Inclination
97.3827°
RAAN
261.0661°
Arg. of periapsis
122.2371°
True anomaly
237.88802°
Mean anomaly
237.9547°
Eccentric anomaly
237.92136°
Mean motion
3.87705 °/min
Orbital period
92.85 mins
BSTAR
0.00034086
Loading maneuver chart data...
Computing Atmospheric mass density...

Documentation

Showing up to 5 results
|